When you browse on this site, cookies collect data to enhance your experience and personalize the content and advertising you see.
Visit our Privacy Policy to learn more. By continuing to use the site, you agree to this use of cookies and data.
EN

Hourly Weather Huánuco

Today, 6 July, Monday

Time Temperature Precipitation Wind Pressure Humidity
00:00 +15°C° 0 mm 0 mps 597 mmHg 92%
01:00 +16°C° 0 mm 0 mps 597 mmHg 92%
02:00 +16°C° 0.1 mm 0 mps 597 mmHg 91%
03:00 +16°C° 0.1 mm 0 mps 597 mmHg 91%
04:00 +15°C° 0.1 mm 0 mps 596 mmHg 90%
05:00 +16°C° 0 mm 0 mps 597 mmHg 90%
06:00 +16°C° 0 mm 0 mps 597 mmHg 89%
07:00 +16°C° 0 mm 0 mps 597 mmHg 89%
08:00 +20°C° 0.2 mm 1 mps 598 mmHg 82%
09:00 +21°C° 0.2 mm 1 mps 599 mmHg 76%
10:00 +23°C° 0.2 mm 2 mps 600 mmHg 70%
11:00 +23°C° 0.9 mm 2 mps 599 mmHg 69%
12:00 +24°C° 0.9 mm 2 mps 599 mmHg 68%
13:00 +24°C° 0.9 mm 3 mps 598 mmHg 68%
14:00 +24°C° 0.6 mm 3 mps 598 mmHg 70%
15:00 +24°C° 0.6 mm 3 mps 597 mmHg 73%
16:00 +22°C° 0.6 mm 3 mps 597 mmHg 76%
17:00 +21°C° 0.7 mm 2 mps 597 mmHg 82%
18:00 +20°C° 0.7 mm 2 mps 597 mmHg 89%
19:00 +19°C° 0.7 mm 1 mps 597 mmHg 95%
20:00 +19°C° 0.3 mm 1 mps 597 mmHg 95%
21:00 +19°C° 0.3 mm 1 mps 597 mmHg 94%
22:00 +17°C° 0.3 mm 0 mps 598 mmHg 94%
23:00 +17°C° 0.3 mm 0 mps 598 mmHg 94%

Tomorrow, 7 July, Tuesday

Time Temperature Precipitation Wind Pressure Humidity
00:00 +16°C° 0.3 mm 0 mps 597 mmHg 94%
01:00 +16°C° 0.3 mm 0 mps 597 mmHg 94%
02:00 +16°C° 0.2 mm 0 mps 596 mmHg 93%
03:00 +16°C° 0.2 mm 0 mps 596 mmHg 93%
04:00 +15°C° 0.2 mm 0 mps 596 mmHg 93%
05:00 +15°C° 0 mm 0 mps 596 mmHg 92%
06:00 +16°C° 0 mm 0 mps 596 mmHg 91%
07:00 +16°C° 0 mm 0 mps 597 mmHg 90%
08:00 +19°C° 0 mm 1 mps 597 mmHg 83%
09:00 +21°C° 0 mm 1 mps 598 mmHg 77%
10:00 +21°C° 0 mm 2 mps 599 mmHg 71%
11:00 +23°C° 0.1 mm 2 mps 598 mmHg 68%
12:00 +24°C° 0.1 mm 2 mps 598 mmHg 66%
13:00 +25°C° 0.1 mm 2 mps 598 mmHg 63%
14:00 +24°C° 0.1 mm 2 mps 597 mmHg 66%
15:00 +24°C° 0.1 mm 3 mps 596 mmHg 69%
16:00 +24°C° 0.1 mm 3 mps 596 mmHg 72%
17:00 +21°C° 0.1 mm 2 mps 596 mmHg 80%
18:00 +20°C° 0.1 mm 2 mps 596 mmHg 88%
19:00 +19°C° 0.1 mm 1 mps 595 mmHg 96%
20:00 +19°C° 0.1 mm 1 mps 596 mmHg 96%
21:00 +19°C° 0.1 mm 1 mps 596 mmHg 95%
22:00 +16°C° 0.1 mm 0 mps 596 mmHg 95%
23:00 +16°C° 0 mm 0 mps 596 mmHg 94%

Day after tomorrow, 8 July, Wednesday

Time Temperature Precipitation Wind Pressure Humidity
00:00 +16°C° 0 mm 0 mps 596 mmHg 94%
01:00 +16°C° 0 mm 0 mps 596 mmHg 93%
02:00 +16°C° 0.1 mm 0 mps 596 mmHg 92%
03:00 +16°C° 0.1 mm 0 mps 595 mmHg 91%
04:00 +15°C° 0.1 mm 0 mps 595 mmHg 91%
05:00 +16°C° 0 mm 0 mps 595 mmHg 90%
06:00 +16°C° 0 mm 0 mps 596 mmHg 90%
07:00 +16°C° 0 mm 0 mps 596 mmHg 90%
08:00 +19°C° 0.1 mm 1 mps 597 mmHg 84%
09:00 +21°C° 0.1 mm 1 mps 598 mmHg 77%
10:00 +21°C° 0.1 mm 2 mps 598 mmHg 71%
11:00 +23°C° 0.5 mm 2 mps 598 mmHg 70%
12:00 +22°C° 0.5 mm 3 mps 598 mmHg 69%
13:00 +24°C° 0.5 mm 3 mps 597 mmHg 69%
14:00 +22°C° 0.3 mm 3 mps 597 mmHg 71%
15:00 +22°C° 0.3 mm 3 mps 596 mmHg 74%
16:00 +22°C° 0.3 mm 3 mps 595 mmHg 76%
17:00 +20°C° 0.2 mm 3 mps 595 mmHg 83%
18:00 +19°C° 0.2 mm 2 mps 595 mmHg 90%
19:00 +17°C° 0.2 mm 2 mps 595 mmHg 96%
20:00 +18°C° 0.1 mm 1 mps 596 mmHg 96%
21:00 +18°C° 0.1 mm 1 mps 596 mmHg 96%
22:00 +18°C° 0.1 mm 1 mps 596 mmHg 96%
23:00 +18°C° 0.1 mm 1 mps 596 mmHg 95%

9 July, Thursday

Time Temperature Precipitation Wind Pressure Humidity
00:00 +16°C° 0.1 mm 0 mps 596 mmHg 95%
01:00 +16°C° 0.1 mm 0 mps 596 mmHg 94%
02:00 +16°C° 0.6 mm 0 mps 596 mmHg 94%
03:00 +16°C° 0.6 mm 0 mps 596 mmHg 94%
04:00 +15°C° 0.6 mm 0 mps 596 mmHg 94%
05:00 +15°C° 1.1 mm 0 mps 596 mmHg 95%
06:00 +15°C° 1.1 mm 0 mps 596 mmHg 96%
07:00 +15°C° 1.1 mm 0 mps 596 mmHg 97%
08:00 +18°C° 0.3 mm 1 mps 597 mmHg 93%
09:00 +19°C° 0.3 mm 1 mps 598 mmHg 90%
10:00 +19°C° 0.3 mm 1 mps 598 mmHg 86%
11:00 +18°C° 0.7 mm 2 mps 598 mmHg 88%
12:00 +18°C° 0.7 mm 2 mps 597 mmHg 89%
13:00 +18°C° 0.7 mm 2 mps 596 mmHg 91%
14:00 +18°C° 0.2 mm 2 mps 596 mmHg 89%
15:00 +19°C° 0.2 mm 1 mps 596 mmHg 86%
16:00 +19°C° 0.2 mm 1 mps 596 mmHg 84%
17:00 +18°C° 0.1 mm 1 mps 596 mmHg 88%
18:00 +18°C° 0.1 mm 1 mps 596 mmHg 92%
19:00 +16°C° 0.1 mm 1 mps 596 mmHg 97%
20:00 +16°C° 0.2 mm 1 mps 596 mmHg 96%
21:00 +15°C° 0.2 mm 0 mps 597 mmHg 96%
22:00 +15°C° 0.2 mm 0 mps 597 mmHg 95%
23:00 +15°C° 0.1 mm 0 mps 597 mmHg 96%

10 July, Friday

Time Temperature Precipitation Wind Pressure Humidity
00:00 +15°C° 0.1 mm 0 mps 597 mmHg 96%
01:00 +15°C° 0.1 mm 0 mps 597 mmHg 96%
02:00 +15°C° 0.1 mm 0 mps 597 mmHg 96%
03:00 +15°C° 0.1 mm 0 mps 597 mmHg 96%
04:00 +15°C° 0.1 mm 0 mps 597 mmHg 95%
05:00 +15°C° 0.6 mm 0 mps 597 mmHg 96%
06:00 +16°C° 0.6 mm 1 mps 597 mmHg 96%
07:00 +16°C° 0.6 mm 1 mps 598 mmHg 96%
08:00 +16°C° 0.8 mm 1 mps 598 mmHg 95%
09:00 +16°C° 0.8 mm 1 mps 598 mmHg 94%
10:00 +18°C° 0.8 mm 1 mps 599 mmHg 93%
11:00 +18°C° 0.5 mm 1 mps 598 mmHg 92%
12:00 +18°C° 0.5 mm 1 mps 598 mmHg 91%
13:00 +18°C° 0.5 mm 1 mps 597 mmHg 89%
14:00 +19°C° 0.1 mm 1 mps 597 mmHg 86%
15:00 +19°C° 0.1 mm 1 mps 597 mmHg 83%
16:00 +20°C° 0.1 mm 1 mps 596 mmHg 80%
17:00 +18°C° 0 mm 1 mps 596 mmHg 84%
18:00 +15°C° 0 mm 0 mps 596 mmHg 88%
19:00 +14°C° 0 mm 0 mps 596 mmHg 92%
20:00 +14°C° 0 mm 0 mps 596 mmHg 91%
21:00 +14°C° 0 mm 0 mps 596 mmHg 90%
22:00 +13°C° 0 mm 0 mps 597 mmHg 89%
23:00 +13°C° 0 mm 0 mps 596 mmHg 89%

11 July, Saturday

Time Temperature Precipitation Wind Pressure Humidity
00:00 +13°C° 0 mm 0 mps 596 mmHg 89%
01:00 +13°C° 0 mm 0 mps 596 mmHg 89%
02:00 +14°C° 0 mm 1 mps 595 mmHg 88%
03:00 +14°C° 0 mm 1 mps 595 mmHg 88%
04:00 +13°C° 0 mm 1 mps 595 mmHg 87%
05:00 +14°C° 0 mm 1 mps 595 mmHg 86%
06:00 +14°C° 0 mm 1 mps 596 mmHg 84%
07:00 +15°C° 0 mm 1 mps 597 mmHg 82%
08:00 +18°C° 0 mm 1 mps 598 mmHg 74%
09:00 +21°C° 0 mm 1 mps 598 mmHg 66%
10:00 +23°C° 0 mm 1 mps 599 mmHg 58%
11:00 +24°C° 0.1 mm 2 mps 599 mmHg 58%
12:00 +24°C° 0.1 mm 2 mps 599 mmHg 58%
13:00 +25°C° 0.1 mm 3 mps 598 mmHg 59%
14:00 +24°C° 0.2 mm 3 mps 598 mmHg 63%
15:00 +24°C° 0.2 mm 3 mps 597 mmHg 67%
16:00 +22°C° 0.2 mm 3 mps 596 mmHg 72%
17:00 +20°C° 0 mm 2 mps 596 mmHg 79%
18:00 +19°C° 0 mm 1 mps 596 mmHg 87%
19:00 +16°C° 0 mm 1 mps 595 mmHg 95%
20:00 +16°C° 0 mm 1 mps 595 mmHg 94%
21:00 +16°C° 0 mm 1 mps 596 mmHg 93%
22:00 +15°C° 0 mm 1 mps 596 mmHg 93%
23:00 +15°C° 0 mm 1 mps 596 mmHg 91%
Show more